Location: Izdebno
(52.6670°N, 16.2170°E)
Time: 19:06:02
(UTC+01:00)

Explorer 11/Cluster Stage 4 - All Passes

Search period start: 22 February 2024 00:00
Search period end: 03 March 2024 00:00
Orbit: 465 x 1224 km, 28.8° (Epoch: 21 February)

Date Brightness Start Highest point End Pass type
(mag) Time Alt. Az. Time Alt. Az. Time Alt. Az.
28 Feb - 01:25:50 10° S 01:26:33 10° S 01:27:17 10° S night (unlit)
29 Feb - 01:08:20 10° S 01:09:43 10° S 01:11:05 10° S night (unlit)
01 Mar - 00:51:12 10° SSW 00:52:51 11° S 00:54:29 10° SSE night (unlit)
02 Mar - 00:34:16 10° SSW 00:35:58 11° S 00:37:40 10° S night (unlit)
